User: anonymous   Login
Location: Theydon Bois
(51.6750°N, 0.1050°E)
Time: 16:35:54
(UTC+01:00)
Language:

FREGAT/IRIS - Orbit

View from above orbital plane
View from above orbital plane
View from above satellite
View from above satellite

Ground track
Ground track

The orbit data is extracted from the following two-line orbital elements,

1 35867U 09049C   18203.56318701 +.00007459 +00000-0 +75390-4 0  9999
2 35867 097.0115 232.2746 0006220 118.2612 241.9277 15.65587473496687
Epoch (UTC): 22 July 2018 13:30:59
Eccentricity: 0.0006220
inclination: 97.0115°
perigee height: 367 km
apogee height: 376 km
right ascension of ascending node: 232.2746°
argument of perigee: 118.2612°
revolutions per day: 15.65587473
mean anomaly at epoch: 241.9277°
orbit number at epoch: 49668

The dashed part of the orbit path shows where the satellite is in the earth's shadow,  

DLR